"Pseudo-MPEC" for P11FTjv

Created 2023 Jun 9 12:22:06 UT using Find_Orb

Click here for an explanation of pseudo-MPECs

 
 Astrometry: 
     P11FTjv* C2023 06 07)e=*As1(m#d0OR^CH33[-.%8B5m^-NhrELm?7Ofn9wDVO\SwIg3VF51
     P11FTjv  C2023 06 07O8Ir'p04ER,jYycpNPehMcxVyQ-Ir@%3Astrometry(t:y^ODk5hF51
     P11FTjv  C2023 06 07J5Rt=(__U]eirKa9*c37@fvo0A_xktPek2%QA'h,)W%.sr96xNrlF51
     P11FTjv  C2023 06 07$BVE'TjU_/Fq4Qmp@yyQXbJ*!a('i!MGC)F$76Yvy%H4Wo*Qn]('F51
     P11FTjv  C2023 06 07ES1nn'7I.8l7^pON)%M.';?vEpE)yL(,])T+dkTs)dAJmoSsvbT8F51
     P11FTjv KC2023 06 07.93000715 40 55.627-07 55 17.29   ~67Mq 19.4 GVNEOCPJ95
     P11FTjv KC2023 06 07.93686815 40 57.970-07 58 24.67   ~67Mq 19.5 GVNEOCPJ95
     P11FTjv KC2023 06 07.94215315 40 59.674-08 00 48.53   ~67Mqx19.8 GVNEOCPJ95
     P11FTjv |C2023 06 08'+redacted;]R*@QVI]m,7yp\SCeT.`$UUX(Qt]iUB'-L!8\$uO0807
     P11FTjv |C2023 06 08f([6$Ajf'HB\ZJh.a1d)8K/:dk9A)#d\9B$]c+,+h@/VOKgmTZdN807
     P11FTjv |C2023 06 08(/lvPuVT98m\+yH7*61mF:g-M!kObB^+q:9eS`!ok=(^-nQ-.Juw807
     P11FTjv |C2023 06 08PvB^BHC's7@^j'9:r9W!w?I)LW-!M^RIXbZ+*-vJFgQ_'Jy8%P1N807
     P11FTjv KC2023 06 083^_@93$E6*Wxa7]ky4;E!G*\q]NPh`$!x=B7*7A_nsF`17_E,*ShH21
     P11FTjv KC2023 06 08\JdnJXoHvk:l+!QyOw9:hx_t\9N%OR+9-yd?Hfo:ZP`eclickQ7eH21
     P11FTjv KC2023 06 08ZhXtVW3*mLXr!eW;LVYk%EasZkYEvJdhereWlC+T?,Gk?tG*Q0buH36
     P11FTjv KC2023 06 08!AtnT-MT^Q;C;FEo?QqeJE2TPNd8#@Yw6',xT`\_Xw\Nw'wq3n\7H21
     P11FTjv KC2023 06 08mnFDvd\y*pPuw6s,PUE/,(7]c4TP)6hP^4tZx13][dXXQQ`d:lF+H36
     P11FTjv KC2023 06 08O/?^:t(SYpMmH^'+?k=REHJP.hDT4O^xoB8qtJOjRC8jJx0oo:fEH21
     P11FTjv KC2023 06 08L/C[Cs?ABa39W--QJPD:TB$I7@=/a6p`q9Y65UwHT0fa;jk_+y'/H36
     P11FTjv  C2023 06 08.20007615 42 38.182-09 53 59.28   ~685b 20.1 GVNEOCPH01
     P11FTjv  C2023 06 08.20355915 42 39.249-09 55 28.88   ~685b 19.6 GVNEOCPH01
     P11FTjv  C2023 06 08.21496015 42 42.724-10 00 21.55   ~685b 19.8 GVNEOCPH01
     P11FTjv  C2023 06 08.22686015 42 46.342-10 05 25.85   ~685b 19.8 GVNEOCPH01
     P11FTjv HC2023 06 08Hs*@\k\raviT/%CdVF310SLKDr1)ql8t?Bng*NN']6w!The6Ak?=M21
     P11FTjv HC2023 06 08'H5Macm]WIKawSh;6Y9q4Gw2hwW^=ueed8M_d*.iE`BhU3GH*5o[M21
     P11FTjv KC2023 06 087[#49a+hKRsQYXocA^b'[P6nQ_RfT3#67lORQqYIRT(d#E+b-fw8104
     P11FTjv KC2023 06 08#kiwVp03,!Y5.1,A3/sAk7Ejwax=^jt)Y6i-j#9F\)TGiu[yHVD_L01
     P11FTjv KC2023 06 08!56bgTWN]6ecZL.]?.sHbA87Vk_25x4JiP7C+nKh_j,?:V\HO^dpL01
     P11FTjv IC2023 06 08v!LA:9Wl'[[WsXA*+Zt7Sk+/'-9eKcj]@)nf0PHA#^xdC394f*sPL01
     P11FTjv IC2023 06 081ZCP+,l1vP+Yxqi(se+TI^Fq1Z7oSAZgd1rK#]G-B',mJ4A5tu82L01
     P11FTjv KC2023 06 08m^]%rNt%pUl4@_CUaQwh7El%f(S;te.3g_QeGq1[7*u4_\?7$06p104
     P11FTjv pC2023 06 086RC=Mc%:emy/=ZPSK4N_sd%dhi8%Vk#MrfS2+FeHU*?i4r:HyudXL01
     P11FTjv KB2023 06 09:,H:E'K6^xbJQN0Q92`wQOe$ig$CcCU#O#qt_BdCuHLTforX$HjEY05
     P11FTjv KB2023 06 09uney7R$Z;!6rPmD%,@C*;JRh$dFLTdL)2k)JCa*9bt18B/qNP;XkY05
     P11FTjv KB2023 06 09ed3iN3p\Rvfdgo4dVs#rmidix\NwP@b;-+iAexplanationUs+l7Y05

Station data:
(104) San Marcello Pistoiese  (N44.064178 E10.803750)  Italy.  Observers P.
   Bacci, M. Maestripieri. Measurers P. Bacci, L. Tesi, G. Fagioli. 0.60-m
   reflector + CCD.
(807) Cerro Tololo Observatory, La Serena  (S30.169133 W70.805900)  Chile.
   Observer R. Holmes. 0.61-m f/6.5 astrograph + CCD.
(F51) Pan-STARRS 1, Haleakala  (N20.707234 W156.255910)  US/Hawaii.
   Observers J. Bulger, T. Lowe, A. Schultz, M. Willman. Measurers K.
   Chambers, S. Chastel, T. de Boer, L. Denneau, J. Fairlamb, H. Flewelling,
   M. Huber, C.-C. Lin, E. Magnier, Y. Ramanjooloo, R. Wainscoat, R. Weryk.
   1.8-m Ritchey-Chrétien + CCD.
(H01) Magdalena Ridge Observatory, Socorro  (N33.984833 W107.189333)  US/New
   Mexico.  Observers W. H. Ryan, E. V. Ryan. Measurer W. H. Ryan. 2.4-m
   f/8.9 reflector + CCD.
(H21) Astronomical Research Observatory, Westfield  (N39.483054 W87.968270)
   US/Illinois.  Observer R. Holmes. Measurers S. Foglia, L. Buzzi, T.
   Linder, R. Holmes. 0.76-m f/3.0 astrograph + CCD0.81-m f/4.0 astrograph +
   CCD0.61-m f/4.5 astrograph + CCD0.40-m f/5.32 astrograph + CCD.
(H36) Sandlot Observatory, Scranton  (N38.797690 W95.706400)  US/Kansas.
   Observer G. Hug. 0.56-m reflector + CCD.
(J95) Great Shefford  (N51.474969 W1.447003)  UK/England.  Observer P.
   Birtwhistle. 0.41-m f/6.3 Schmidt-Cassegrain + CCD.
(L01) Višnjan Observatory, Tičan  (N45.290897 E13.749300)  Croatia.
   Observers K. Korlević, D. Pujagic, V. Dobos. Measurers D. Pujagic, K.
   Korlević. 1.0-m f/2.9 reflector + CCD.
(M21) Schiaparelli Southern Observatory, Hakos  (S23.236549 E16.361440)
   Namibia.  Observers A. Aletti, F. Bellini, L. Buzzi, G. Galli. Measurer L.
   Buzzi. 0.36-m f/8.4 reflector + CCD.
(Y05) SONEAR Wykrota-CEAMIG, Serra da Piedade  (S19.824239 W43.690000)
   Brazil.

Orbital elements:  P11FTjv
   Perihelion 2023 Apr 15.50477 +/- 0.0208 TT = 12:06:51 (JD 2460050.00477)
Epoch 2023 Jun  9.0 TT = JDT 2460104.5   Earth MOID: 0.0344   Ma: 0.0664
M  26.58113471 +/- 0.048            (J2000 ecliptic)             AutoNEOCP
n   0.48776991 +/- 0.000707         Peri.  106.44720 +/- 0.011
a   1.59830397 +/- 0.00154          Node    77.47927 +/- 0.0009
e   0.4846183 +/- 0.000554          Incl.   16.08712 +/- 0.014
P   2.02/738.04d           H 25.18  G  0.15   U  7.9
q 0.82373652 +/- 9.25e-5    Q 2.37287142 +/- 0.00318
34 of 35 observations 2023 June 7-9 (41.6 hr); mean residual 0".30
Residuals in arcseconds: 
230607 F51  .03+  .23+    230608 H21  .21-  .12-    230608 M21  .16-  .15+    
230607 F51  .04+  .35+    230608 H21  .23-  .04-    230608 104  .07+  .18-    
230607 F51  .03+  .04+    230608 H36  .25+  .52-    230608 L01  .18-  .40+    
230607 F51  .01-  .82-    230608 H21  .04+  .11-    230608 L01  .50-  .03+    
230607 F51  .13-  .04-    230608 H36  .12+  .37-    230608 L01  1.0-  .35+    
230607 J95  .27-  .14+    230608 H21  .17-  .15+    230608 L01  .25-  .56+    
230607 J95  .25+  .02+    230608 H36  .15+  .55+    230608 104  .35-  .21-    
230607 J95( .80-  .19+)   230608 H01  .07+  .13-    230608 L01  .33+  .54+    
230608 807  .00   .11-    230608 H01  .08+  .16-    230609 Y05  .49+  .62-    
230608 807  .25+  .01-    230608 H01  .04+  .22-    230609 Y05  .23+  .27-    
230608 807  .25+  .17-    230608 H01  .10+  .05-    230609 Y05  .31+  .08-    
230608 807  .15+  .31-    230608 M21  .30+  .15+    

Ephemerides (geocentric):
Date (UTC) HH   RA             Dec           delta  r     elong  mag " sig PA
---- --------  ------------   ------------  ------ ------ -----  --- --------
2023 06 09 12  15 49 40.594   -17 53 09.83  .06006 1.0720 160.9 20.2 .022  38
2023 06 09 13  15 49 52.768   -18 06 20.14  .06034 1.0723 161.0 20.2 .027  29
2023 06 09 14  15 50 04.861   -18 19 23.00  .06063 1.0726 161.1 20.2 .032  22
2023 06 09 15  15 50 16.876   -18 32 18.47  .06091 1.0729 161.2 20.2 .037  17
2023 06 09 16  15 50 28.813   -18 45 06.63  .06120 1.0732 161.2 20.2 .043  14
2023 06 09 17  15 50 40.673   -18 57 47.57  .06149 1.0735 161.3 20.3 .049  11
2023 06 09 18  15 50 52.456   -19 10 21.36  .06178 1.0738 161.3 20.3 .055   9
2023 06 09 19  15 51 04.163   -19 22 48.08  .06207 1.0741 161.4 20.3 .062   7
2023 06 09 20  15 51 15.796   -19 35 07.81  .06236 1.0744 161.5 20.3 .068   6
2023 06 09 21  15 51 27.355   -19 47 20.62  .06265 1.0747 161.5 20.3 .075   4
2023 06 09 22  15 51 38.840   -19 59 26.58  .06295 1.0750 161.6 20.3 .081   3
2023 06 09 23  15 51 50.253   -20 11 25.77  .06324 1.0753 161.6 20.3 .088   2
2023 06 10 00  15 52 01.593   -20 23 18.27  .06353 1.0756 161.6 20.3 .094   2
2023 06 10 01  15 52 12.863   -20 35 04.14  .06383 1.0759 161.7 20.3 .101   1
2023 06 10 02  15 52 24.062   -20 46 43.47  .06413 1.0762 161.7 20.3 .108   0
2023 06 10 03  15 52 35.191   -20 58 16.32  .06442 1.0765 161.8 20.3 .115   0
2023 06 10 04  15 52 46.251   -21 09 42.76  .06472 1.0768 161.8 20.4 .121 179
2023 06 10 05  15 52 57.243   -21 21 02.86  .06502 1.0771 161.8 20.4 .128 179
2023 06 10 06  15 53 08.167   -21 32 16.70  .06532 1.0774 161.9 20.4 .135 178
2023 06 10 07  15 53 19.024   -21 43 24.34  .06562 1.0777 161.9 20.4 .142 178
2023 06 10 08  15 53 29.814   -21 54 25.85  .06592 1.0780 161.9 20.4 .149 178
2023 06 10 09  15 53 40.539   -22 05 21.30  .06622 1.0783 161.9 20.4 .156 177
2023 06 10 10  15 53 51.198   -22 16 10.76  .06653 1.0786 162.0 20.4 .163 177
2023 06 10 11  15 54 01.793   -22 26 54.29  .06683 1.0789 162.0 20.4 .170 177
2023 06 10 12  15 54 12.324   -22 37 31.95  .06713 1.0792 162.0 20.4 .177 177
2023 06 10 13  15 54 22.792   -22 48 03.82  .06744 1.0795 162.0 20.4 .184 176
2023 06 10 14  15 54 33.197   -22 58 29.96  .06774 1.0798 162.0 20.5 .191 176
2023 06 10 15  15 54 43.541   -23 08 50.42  .06805 1.0801 162.0 20.5 .198 176
2023 06 10 16  15 54 53.822   -23 19 05.28  .06836 1.0804 162.0 20.5 .206 176
2023 06 10 17  15 55 04.043   -23 29 14.60  .06867 1.0807 162.0 20.5 .213 175
2023 06 10 18  15 55 14.204   -23 39 18.43  .06897 1.0811 162.1 20.5 .220 175
2023 06 10 19  15 55 24.305   -23 49 16.84  .06928 1.0814 162.1 20.5 .227 175
2023 06 10 20  15 55 34.346   -23 59 09.89  .06959 1.0817 162.1 20.5 .234 175
2023 06 10 21  15 55 44.330   -24 08 57.63  .06990 1.0820 162.1 20.5 .241 175
2023 06 10 22  15 55 54.255   -24 18 40.13  .07021 1.0823 162.1 20.5 .248 175
2023 06 10 23  15 56 04.122   -24 28 17.45  .07053 1.0826 162.1 20.5 .255 175
2023 06 11 00  15 56 13.933   -24 37 49.64  .07084 1.0829 162.1 20.6 .263 174
2023 06 11 01  15 56 23.687   -24 47 16.76  .07115 1.0832 162.0 20.6 .270 174
2023 06 11 02  15 56 33.386   -24 56 38.86  .07146 1.0835 162.0 20.6 .277 174
2023 06 11 03  15 56 43.029   -25 05 56.00  .07178 1.0838 162.0 20.6 .284 174
2023 06 11 04  15 56 52.617   -25 15 08.24  .07209 1.0841 162.0 20.6 .291 174
2023 06 11 05  15 57 02.151   -25 24 15.63  .07241 1.0844 162.0 20.6 .298 174
2023 06 11 06  15 57 11.631   -25 33 18.22  .07272 1.0847 162.0 20.6 .305 174
2023 06 11 07  15 57 21.058   -25 42 16.07  .07304 1.0850 162.0 20.6 .312 174
2023 06 11 08  15 57 30.432   -25 51 09.22  .07336 1.0853 162.0 20.6 .319 173
2023 06 11 09  15 57 39.754   -25 59 57.74  .07368 1.0856 162.0 20.6 .327 173
2023 06 11 10  15 57 49.024   -26 08 41.67  .07399 1.0859 161.9 20.7 .334 173
2023 06 11 11  15 57 58.242   -26 17 21.06  .07431 1.0862 161.9 20.7 .341 173